Location: Drocourt
(49.0571°N, 1.7669°E)
Time: 06:52:26
(UTC+00:00)

Cosmos-2242 - Pass Details

Date: 09 February 2023
Orbit: 587 x 612 km, 82.5° (Epoch: 23 March)

Event Time Altitude Azimuth Distance (km) Brightness Sun altitude
Rises 18:14:53 0° 356° (N) 2,831 6.4 -12.2°
Reaches altitude 10° 18:17:14 10° 5° (N) 1,925 5.5 -12.6°
Maximum altitude 18:21:11 36° 73° (ENE) 935 3.5 -13.2°
Drops below altitude 10° 18:25:07 10° 142° (SE) 1,915 5.3 -13.9°
Sets 18:27:26 0° 150° (SSE) 2,814 6.2 -14.3°
